FW6610 Weather Reports


Display with metric or nautical units.
time (UTC)temp
F
wind
direction
speed
MPH
gust
MPH
rain 1hr
in
rain 24hr
in
rain mn
in
humidity
%
barometer
mb
20260906113529 59 335 0.0 3.0 0.06 0.09 0.07 97 1016.2
20260906113054 59 113 0.0 3.0 0.05 0.08 0.06 97 1016.1
20260906112529 59 314 0.0 2.0 0.05 0.08 0.06 97 1016.1
20260906112030 59 264 1.0 2.0 0.05 0.08 0.06 97 1016.0
20260906111545 59 254 0.0 2.0 0.05 0.08 0.06 97 1015.9
20260906111029 59 307 1.0 3.0 0.04 0.07 0.05 97 1016.0
20260906110527 59 281 1.0 3.0 0.03 0.06 0.04 97 1015.8
20260906110053 59 252 1.0 3.0 0.01 0.04 0.02 97 1015.6
20260906105527 59 315 0.0 3.0 0.00 0.03 0.01 97 1015.5
20260906105031 59 289 0.0 3.0 0.00 0.03 0.01 97 1015.6
20260906104549 59 13 0.0 3.0 0.00 0.03 0.01 97 1015.5
20260906104029 59 0 1.0 3.0 0.00 0.03 0.01 97 1015.4
20260906103528 59 296 1.0 3.0 0.00 0.03 0.01 96 1015.3
20260906103055 59 0 0.0 2.0 0.00 0.03 0.01 97 1015.1
20260906102528 59 0 0.0 2.0 0.00 0.03 0.01 97 1015.1
20260906102033 59 296 0.0 2.0 0.00 0.03 0.01 97 1015.0
20260906101553 59 0 0.0 2.0 0.00 0.03 0.01 97 1015.0
20260906101029 59 334 0.0 1.0 0.00 0.03 0.01 97 1015.0
20260906100528 59 0 0.0 0.0 0.00 0.03 0.01 97 1014.9
20260906100052 59 0 0.0 0.0 0.00 0.03 0.01 97 1014.9
20260906095529 59 0 0.0 0.0 0.00 0.03 0.01 97 1014.9
20260906095027 59 0 0.0 0.0 0.00 0.03 0.01 97 1014.8
20260906094548 59 0 0.0 0.0 0.00 0.03 0.01 97 1014.7
20260906094028 59 0 0.0 0.0 0.00 0.03 0.01 97 1014.8
20260906093528 59 0 0.0 0.0 0.00 0.03 0.01 97 1014.7
20260906093045 59 0 0.0 0.0 0.00 0.03 0.01 97 1014.7
20260906092531 59 0 0.0 0.0 0.00 0.03 0.01 97 1014.7
20260906092030 59 0 0.0 0.0 0.00 0.03 0.01 97 1014.6
20260906091551 59 0 0.0 1.0 0.00 0.03 0.01 97 1014.5
20260906091029 59 0 0.0 1.0 0.00 0.03 0.01 97 1014.5
20260906090526 59 0 0.0 0.0 0.00 0.03 0.01 97 1014.5
20260906090049 59 0 0.0 0.0 0.00 0.03 0.01 97 1014.4
20260906085531 59 0 0.0 0.0 0.00 0.03 0.01 97 1014.5
20260906085029 59 0 0.0 0.0 0.00 0.03 0.01 96 1014.6
20260906084554 59 0 0.0 1.0 0.00 0.03 0.01 97 1014.7
20260906084029 59 0 0.0 1.0 0.00 0.03 0.01 97 1014.7
20260906083531 59 0 0.0 1.0 0.00 0.03 0.01 97 1014.6
20260906083048 59 0 0.0 1.0 0.00 0.03 0.01 96 1014.5
20260906082531 59 0 0.0 1.0 0.00 0.03 0.01 96 1014.5
20260906082030 59 343 0.0 1.0 0.00 0.03 0.01 96 1014.4
20260906081550 59 0 0.0 0.0 0.00 0.03 0.01 96 1014.1
20260906081029 59 0 0.0 0.0 0.00 0.03 0.01 96 1014.5
20260906080529 59 0 0.0 1.0 0.00 0.03 0.01 96 1014.6
20260906080052 59 0 0.0 1.0 0.00 0.03 0.01 96 1014.6
20260906075529 59 299 0.0 1.0 0.00 0.03 0.01 96 1014.5
20260906075030 59 0 0.0 1.0 0.00 0.03 0.01 96 1014.4
20260906074604 59 0 0.0 0.0 0.00 0.03 0.01 96 1014.4
20260906074028 59 0 0.0 0.0 0.00 0.03 0.01 96 1014.4
20260906073530 59 0 0.0 1.0 0.00 0.03 0.01 96 1014.4
20260906073045 59 0 0.0 1.0 0.00 0.03 0.01 96 1014.5
20260906072529 59 0 0.0 1.0 0.00 0.03 0.01 96 1014.5
20260906072031 59 0 0.0 1.0 0.00 0.03 0.01 96 1014.5
20260906071544 59 0 0.0 1.0 0.00 0.03 0.01 96 1014.3
20260906071031 59 0 0.0 0.0 0.00 0.03 0.01 96 1014.5
20260906070531 59 0 0.0 0.0 0.00 0.03 0.01 96 1014.4
20260906070141 59 0 0.0 1.0 0.00 0.03 0.01 96 1014.5
20260906070052 59 0 0.0 1.0 0.00 0.03 0.01 96 1014.5
20260906065529 59 0 0.0 1.0 0.00 0.03 0.01 96 1014.5
20260906065031 59 0 0.0 1.0 0.00 0.03 0.01 96 1014.5
20260906064546 59 0 0.0 1.0 0.01 0.03 0.01 96 1014.4
20260906064029 59 0 0.0 1.0 0.01 0.03 0.01 96 1014.5
20260906063529 59 0 0.0 1.0 0.01 0.03 0.01 95 1014.4
20260906063046 59 0 0.0 1.0 0.01 0.03 0.01 95 1014.6
20260906062529 59 0 0.0 0.0 0.01 0.03 0.01 95 1014.5
20260906062032 59 0 0.0 0.0 0.01 0.03 0.01 95 1014.5
20260906061550 59 0 0.0 3.0 0.01 0.03 0.01 95 1014.7
20260906061029 59 0 0.0 3.0 0.01 0.03 0.01 95 1014.6
20260906060527 60 356 0.0 3.0 0.01 0.03 0.01 95 1014.7
20260906060052 60 0 0.0 0.0 0.01 0.03 0.01 95 1014.7
20260906055530 60 0 0.0 0.0 0.01 0.03 0.01 95 1014.6
20260906055027 60 0 0.0 0.0 0.00 0.02 0.00 95 1014.8
20260906054547 60 0 0.0 0.0 0.00 0.02 0.00 95 1014.7
20260906054030 60 0 0.0 0.0 0.00 0.02 0.00 95 1014.7
20260906053530 60 0 0.0 0.0 0.00 0.02 0.00 95 1014.8
20260906053054 60 0 0.0 0.0 0.00 0.02 0.00 95 1014.9
20260906052529 60 0 0.0 0.0 0.00 0.02 0.00 94 1014.6
20260906052030 60 0 0.0 0.0 0.00 0.02 0.00 94 1014.7
20260906051601 60 0 0.0 0.0 0.00 0.02 0.00 94 1014.7
20260906051029 60 0 0.0 0.0 0.00 0.02 0.00 93 1014.8
20260906050527 61 0 0.0 0.0 0.00 0.02 0.00 93 1014.7
20260906050055 61 0 0.0 0.0 0.00 0.02 0.00 93 1014.7
20260906045530 61 0 0.0 0.0 0.00 0.02 0.00 93 1014.7
20260906045043 61 0 0.0 0.0 0.00 0.02 0.00 92 1014.6
20260906044545 61 0 0.0 0.0 0.00 0.02 0.00 92 1014.6
20260906044031 61 0 0.0 0.0 0.00 0.02 0.00 93 1014.5
20260906043533 61 0 0.0 0.0 0.00 0.02 0.00 92 1014.4
20260906043041 61 0 0.0 0.0 0.00 0.02 0.00 93 1014.5
20260906042527 61 194 0.0 0.0 0.00 0.02 0.00 93 1014.5
20260906042029 61 193 0.0 2.0 0.00 0.02 0.00 93 1014.4
20260906041552 62 0 0.0 2.0 0.00 0.02 0.00 94 1014.4
20260906041026 62 212 0.0 2.0 0.00 0.02 0.00 94 1014.4
20260906040530 62 0 0.0 0.0 0.00 0.02 0.00 95 1014.5
20260906040050 62 0 0.0 0.0 0.00 0.02 0.00 95 1014.5
20260906035530 62 0 0.0 0.0 0.00 0.02 0.02 95 1014.4
20260906035029 62 0 0.0 0.0 0.00 0.02 0.02 95 1014.4
20260906034545 62 0 0.0 0.0 0.00 0.02 0.02 94 1014.2
20260906034029 62 0 0.0 0.0 0.00 0.02 0.02 94 1014.3
20260906033527 62 0 0.0 0.0 0.00 0.02 0.02 94 1014.3
20260906033053 62 0 0.0 0.0 0.01 0.02 0.02 94 1014.4
20260906032530 62 0 0.0 1.0 0.01 0.02 0.02 94 1014.0
20260906032030 62 0 0.0 1.0 0.01 0.02 0.02 93 1013.9
20260906031559 62 0 0.0 1.0 0.01 0.02 0.02 93 1014.0
20260906031029 62 0 0.0 1.0 0.01 0.02 0.02 93 1014.1
20260906030529 62 0 0.0 0.0 0.01 0.02 0.02 93 1014.0
20260906030048 63 0 0.0 1.0 0.01 0.02 0.02 93 1013.7
20260906025529 63 0 0.0 1.0 0.01 0.02 0.02 93 1013.8
20260906025032 63 206 0.0 1.0 0.01 0.02 0.02 92 1013.6
20260906024557 64 0 0.0 0.0 0.01 0.02 0.02 91 1013.6
20260906024030 64 0 0.0 3.0 0.01 0.02 0.02 91 1013.6
20260906023529 64 0 0.0 3.0 0.01 0.02 0.02 90 1013.6
20260906023044 65 158 1.0 3.0 0.00 0.01 0.01 89 1013.7
20260906022529 65 0 0.0 0.0 0.00 0.01 0.01 90 1013.7
20260906022030 65 0 0.0 1.0 0.00 0.01 0.01 91 1013.6
20260906021551 65 0 0.0 1.0 0.00 0.01 0.01 91 1013.5
20260906021030 65 0 0.0 1.0 0.00 0.01 0.01 92 1013.5
20260906020529 65 0 0.0 1.0 0.00 0.01 0.01 92 1013.5
20260906020056 65 0 0.0 1.0 0.00 0.01 0.01 91 1013.5
20260906015528 65 0 0.0 1.0 0.00 0.01 0.01 91 1013.3
20260906015030 65 278 0.0 1.0 0.00 0.01 0.01 92 1013.3
20260906014554 65 0 0.0 0.0 0.00 0.01 0.01 92 1013.3
20260906014028 65 0 0.0 2.0 0.00 0.01 0.01 92 1013.2
20260906013529 65 0 0.0 2.0 0.00 0.01 0.01 91 1013.4
20260906013054 65 0 0.0 1.0 0.00 0.01 0.01 92 1013.4
20260906012531 65 0 0.0 1.0 0.00 0.01 0.01 92 1013.3
20260906012028 65 0 0.0 1.0 0.00 0.01 0.01 92 1013.3
20260906011543 65 0 0.0 1.0 0.00 0.01 0.01 92 1013.2
20260906011029 65 0 0.0 1.0 0.00 0.01 0.01 92 1013.2
20260906010528 65 0 0.0 0.0 0.00 0.01 0.01 93 1013.2
20260906010055 64 0 0.0 0.0 0.00 0.01 0.01 92 1013.1
20260906005529 64 0 0.0 0.0 0.00 0.01 0.01 92 1013.1
20260906005029 65 0 0.0 0.0 0.00 0.01 0.01 92 1013.0
20260906004550 65 0 0.0 0.0 0.00 0.01 0.01 92 1012.9
20260906004029 65 0 0.0 0.0 0.00 0.01 0.01 91 1012.9
20260906003530 65 0 0.0 0.0 0.00 0.01 0.01 91 1012.8
20260906003042 65 0 0.0 0.0 0.00 0.01 0.01 91 1012.8
20260906002529 65 0 0.0 0.0 0.00 0.01 0.01 91 1012.5
20260906002028 65 0 0.0 0.0 0.00 0.01 0.01 91 1012.7
20260906001552 65 0 0.0 0.0 0.00 0.01 0.01 91 1012.6
20260906001029 65 0 0.0 0.0 0.00 0.01 0.01 90 1012.5
20260906000529 65 0 0.0 1.0 0.00 0.01 0.01 90 1012.4
20260906000053 65 0 0.0 1.0 0.00 0.01 0.01 89 1012.2
20260905235527 66 0 0.0 1.0 0.00 0.01 0.01 88 1012.4
20260905235030 66 0 0.0 1.0 0.00 0.01 0.01 88 1012.2
20260905234547 66 0 0.0 1.0 0.00 0.01 0.01 87 1012.1
20260905234029 66 0 0.0 0.0 0.00 0.01 0.01 87 1012.0
20260905233529 66 0 0.0 0.0 0.00 0.01 0.01 86 1011.9
20260905233047 67 0 0.0 0.0 0.00 0.01 0.01 85 1011.9
20260905232528 67 0 0.0 0.0 0.00 0.01 0.01 85 1011.8
20260905232030 67 0 0.0 0.0 0.00 0.01 0.01 85 1011.8
20260905231546 68 0 0.0 0.0 0.00 0.01 0.01 85 1011.8
20260905231028 68 0 0.0 0.0 0.00 0.01 0.01 85 1011.8
20260905230527 69 0 0.0 1.0 0.00 0.01 0.01 84 1011.8
20260905230055 69 0 0.0 1.0 0.00 0.01 0.01 84 1011.8
20260905225527 69 0 0.0 1.0 0.00 0.01 0.01 82 1011.7
20260905225027 69 0 0.0 0.0 0.00 0.01 0.01 85 1011.8
20260905224601 69 0 0.0 0.0 0.00 0.01 0.01 85 1011.7
20260905224028 70 0 0.0 0.0 0.00 0.01 0.01 84 1011.8
20260905223531 70 0 0.0 0.0 0.00 0.01 0.01 83 1011.7
20260905223047 70 0 0.0 0.0 0.00 0.01 0.01 82 1011.8
20260905222529 70 0 0.0 1.0 0.00 0.01 0.01 82 1011.6
20260905222027 71 0 0.0 1.0 0.00 0.01 0.01 81 1011.4
20260905221601 72 0 0.0 2.0 0.00 0.01 0.01 80 1011.3
20260905221033 72 5 1.0 2.0 0.00 0.01 0.01 75 1011.4
20260905220529 72 342 0.0 1.0 0.00 0.01 0.01 75 1011.3
20260905220104 73 325 0.0 1.0 0.00 0.01 0.01 75 1011.2
20260905215529 73 0 0.0 1.0 0.00 0.01 0.01 74 1011.2
20260905215028 73 0 0.0 3.0 0.00 0.01 0.01 73 1011.2
20260905214547 73 346 1.0 4.0 0.00 0.01 0.01 71 1011.1
20260905214030 74 289 1.0 4.0 0.00 0.01 0.01 72 1011.2
20260905213531 74 272 0.0 3.0 0.00 0.01 0.01 73 1011.0
20260905213041 72 0 0.0 1.0 0.00 0.01 0.01 79 1011.2
20260905212532 72 299 0.0 1.0 0.00 0.01 0.01 78 1011.1
20260905212030 72 0 0.0 2.0 0.00 0.01 0.01 76 1011.1
20260905211612 73 312 0.0 3.0 0.00 0.01 0.01 75 1010.9
20260905211029 74 292 0.0 3.0 0.00 0.01 0.01 74 1010.8
20260905210529 74 329 1.0 3.0 0.00 0.01 0.01 71 1010.7
20260905210054 75 0 0.0 5.0 0.00 0.01 0.01 72 1010.7
20260905205527 75 0 1.0 5.0 0.00 0.01 0.01 69 1010.8
20260905205029 75 273 1.0 4.0 0.00 0.01 0.01 68 1010.7
20260905204557 75 295 1.0 6.0 0.00 0.01 0.01 67 1010.8
20260905204029 76 104 3.0 6.0 0.00 0.01 0.01 67 1010.8
20260905203529 77 285 2.0 7.0 0.00 0.01 0.01 66 1010.7
20260905203110 77 354 2.0 7.0 0.00 0.01 0.01 64 1010.6
20260905202531 77 313 2.0 6.0 0.00 0.01 0.01 64 1010.5
20260905202029 77 333 2.0 4.0 0.00 0.01 0.01 67 1010.7
20260905201546 77 274 1.0 4.0 0.00 0.01 0.01 65 1010.6
20260905201029 76 205 0.0 2.0 0.00 0.01 0.01 68 1010.5
20260905200531 74 243 0.0 2.0 0.00 0.01 0.01 71 1010.5
20260905200053 74 0 0.0 1.0 0.00 0.01 0.01 74 1010.5
20260905195530 74 23 0.0 1.0 0.00 0.01 0.01 73 1010.5
20260905195031 75 0 0.0 6.0 0.00 0.01 0.01 74 1010.5
20260905194549 75 0 0.0 6.0 0.00 0.01 0.01 68 1010.5
20260905194029 75 47 2.0 6.0 0.00 0.01 0.01 67 1010.6
20260905193529 75 299 2.0 6.0 0.00 0.01 0.01 67 1010.7
20260905193044 74 134 1.0 6.0 0.00 0.01 0.01 68 1010.5
20260905192528 74 102 3.0 6.0 0.00 0.01 0.01 68 1010.6
20260905192028 74 280 2.0 5.0 0.00 0.01 0.01 70 1010.4
20260905191545 74 334 2.0 5.0 0.00 0.01 0.01 68 1010.3
20260905191029 74 349 1.0 5.0 0.00 0.01 0.01 70 1010.6
20260905190529 74 322 1.0 6.0 0.00 0.01 0.01 70 1010.5
20260905190049 74 333 1.0 6.0 0.00 0.01 0.01 69 1010.6
20260905185528 74 299 1.0 6.0 0.00 0.01 0.01 69 1010.5
20260905185028 74 295 2.0 5.0 0.00 0.01 0.01 67 1010.4
20260905184550 74 308 2.0 5.0 0.00 0.01 0.01 65 1010.4
20260905184029 74 49 2.0 5.0 0.00 0.01 0.01 67 1010.6
20260905183528 74 17 2.0 5.0 0.00 0.01 0.01 69 1010.7
20260905183045 74 296 1.0 5.0 0.00 0.01 0.01 70 1010.6
20260905182528 74 275 0.0 4.0 0.00 0.01 0.01 70 1010.5
20260905182029 74 319 0.0 4.0 0.00 0.01 0.01 69 1010.6
20260905181601 74 15 1.0 4.0 0.00 0.01 0.01 69 1010.5
20260905181027 74 11 2.0 4.0 0.00 0.01 0.01 68 1010.5
20260905180529 74 290 1.0 4.0 0.00 0.01 0.01 71 1010.8
20260905180051 74 279 1.0 4.0 0.00 0.01 0.01 68 1010.7
20260905175530 74 0 1.0 4.0 0.00 0.01 0.01 71 1010.6
20260905175029 74 252 1.0 9.0 0.00 0.01 0.01 68 1010.6
20260905174551 74 0 1.0 9.0 0.00 0.01 0.01 69 1010.7
20260905174030 74 160 3.0 9.0 0.00 0.01 0.01 65 1010.7
20260905173529 75 343 2.0 6.0 0.00 0.01 0.01 66 1010.7
20260905173045 75 278 1.0 6.0 0.00 0.01 0.01 69 1010.7
20260905172529 75 257 1.0 7.0 0.00 0.01 0.01 67 1010.8
20260905172029 74 32 1.0 9.0 0.00 0.01 0.01 68 1010.7
20260905171552 75 288 4.0 9.0 0.00 0.01 0.01 66 1010.7
20260905171030 75 240 1.0 4.0 0.00 0.01 0.01 69 1010.7
20260905170527 75 280 2.0 6.0 0.00 0.01 0.01 68 1010.8
20260905170053 75 345 2.0 7.0 0.00 0.01 0.01 67 1010.8
20260905165533 74 247 3.0 7.0 0.00 0.01 0.01 64 1010.6
20260905165029 75 288 2.0 7.0 0.00 0.01 0.01 66 1010.7
20260905164542 74 170 2.0 7.0 0.00 0.01 0.01 66 1010.8
20260905164029 74 154 3.0 9.0 0.00 0.01 0.01 70 1010.7
20260905163528 75 290 4.0 9.0 0.00 0.01 0.01 66 1010.7
20260905163043 76 272 2.0 6.0 0.00 0.01 0.01 67 1010.7
20260905162527 75 271 1.0 7.0 0.00 0.01 0.01 70 1010.6
20260905162028 75 62 2.0 9.0 0.00 0.01 0.01 68 1010.8
20260905161541 75 272 2.0 9.0 0.00 0.01 0.01 68 1010.7
20260905161030 75 278 3.0 9.0 0.00 0.01 0.01 66 1010.8
20260905160526 75 160 2.0 7.0 0.00 0.01 0.01 67 1010.8
20260905160115 75 307 2.0 7.0 0.00 0.01 0.01 69 1010.8
20260905155529 75 323 1.0 7.0 0.00 0.01 0.01 68 1011.1
20260905155028 74 101 2.0 10.0 0.00 0.01 0.01 70 1011.1
20260905154559 73 110 2.0 10.0 0.00 0.01 0.01 70 1011.1
20260905154029 73 224 2.0 10.0 0.00 0.01 0.01 73 1011.2
20260905153529 72 286 2.0 8.0 0.00 0.01 0.01 76 1011.2
20260905153053 72 319 3.0 8.0 0.00 0.01 0.01 72 1011.1
20260905152526 72 271 2.0 9.0 0.00 0.01 0.01 73 1011.2
20260905152025 72 314 2.0 9.0 0.00 0.01 0.01 73 1011.2
20260905151547 72 305 2.0 9.0 0.00 0.01 0.01 73 1011.3
20260905151029 72 112 1.0 6.0 0.00 0.01 0.01 73 1011.2
20260905150529 72 302 2.0 6.0 0.00 0.01 0.01 73 1011.1
20260905150046 72 16 2.0 8.0 0.01 0.01 0.01 74 1011.2
20260905145529 72 348 1.0 8.0 0.01 0.01 0.01 75 1011.2
20260905145029 72 11 1.0 7.0 0.01 0.01 0.01 76 1011.0
20260905144552 72 37 2.0 7.0 0.01 0.01 0.01 76 1011.2
20260905144032 71 285 3.0 9.0 0.01 0.01 0.01 74 1011.3
20260905143531 71 131 2.0 12.0 0.01 0.01 0.01 75 1011.2
20260905143055 70 297 4.0 12.0 0.01 0.01 0.01 75 1011.3
20260905142530 71 286 4.0 8.0 0.01 0.01 0.01 75 1011.4
20260905142030 70 275 4.0 8.0 0.01 0.01 0.01 76 1011.4
20260905141551 70 247 3.0 8.0 0.01 0.01 0.01 77 1011.3
20260905141030 69 329 3.0 9.0 0.01 0.01 0.01 77 1011.4
20260905140532 69 286 3.0 9.0 0.01 0.01 0.01 77 1011.5
20260905140052 69 162 2.0 7.0 0.00 0.00 0.00 81 1011.3
20260905135528 69 203 2.0 7.0 0.00 0.00 0.00 81 1011.3
20260905135027 68 269 2.0 6.0 0.00 0.00 0.00 84 1011.4
20260905134549 67 56 2.0 5.0 0.00 0.00 0.00 85 1011.5
20260905134030 67 241 1.0 5.0 0.00 0.00 0.00 87 1011.5
20260905133529 66 276 1.0 5.0 0.00 0.00 0.00 89 1011.3
20260905133046 65 347 1.0 4.0 0.00 0.00 0.00 92 1011.5
20260905132532 65 309 0.0 4.0 0.00 0.00 0.00 94 1011.3
20260905132030 64 0 0.0 1.0 0.00 0.00 0.00 98 1011.4
20260905131600 63 356 0.0 1.0 0.00 0.00 0.00 99 1011.3
20260905131029 63 358 0.0 1.0 0.00 0.00 0.00 99 1011.5
20260905130529 62 347 0.0 1.0 0.00 0.00 0.00 99 1011.5
20260905130051 62 0 0.0 0.0 0.00 0.00 0.00 99 1011.6
20260905125528 62 0 0.0 0.0 0.00 0.00 0.00 99 1011.5
20260905125029 61 0 0.0 0.0 0.00 0.00 0.00 99 1011.7
20260905124554 61 0 0.0 0.0 0.00 0.00 0.00 99 1011.7
20260905124033 61 0 0.0 0.0 0.00 0.00 0.00 99 1011.7
20260905123530 61 0 0.0 0.0 0.00 0.00 0.00 99 1011.6
20260905123046 60 0 0.0 0.0 0.00 0.00 0.00 99 1011.6
20260905122529 60 0 0.0 0.0 0.00 0.00 0.00 99 1011.6
20260905122028 60 0 0.0 0.0 0.00 0.00 0.00 99 1011.5
20260905121556 60 0 0.0 0.0 0.00 0.00 0.00 99 1011.4
20260905121028 59 0 0.0 0.0 0.00 0.00 0.00 99 1011.3
20260905120530 59 0 0.0 0.0 0.00 0.00 0.00 99 1011.3
20260905120110 59 0 0.0 0.0 0.00 0.00 0.00 99 1011.3
20260905115528 58 0 0.0 0.0 0.00 0.00 0.00 99 1011.2
20260905115029 58 0 0.0 0.0 0.00 0.00 0.00 99 1011.2
20260905114551 57 0 0.0 0.0 0.00 0.00 0.00 99 1011.1
20260905114029 57 0 0.0 0.0 0.00 0.00 0.00 99 1011.1